sat.trackr.live / text

‹ back to catalog

INTELSAT 902 (IS-902)

NORAD 26900 · 2001-039A

PAYLOAD ACTIVE UNKNOWN

§ Identity

Operator
Country
ITSO
Launch date
2001-08-30
Launch site
FRGUI
Launch vehicle
Mass (kg)
RCS (m²)
14.16

Purposes: comms

External: N2YO · Heavens-Above · Gunter

§ Orbital elements

Epoch: 2026-09-19T21:51:53.163936Z

Period
1,436.09 min
Inclination
6.3499°
Eccentricity
0.0004035
Mean motion
1.00272401 rev/d
Perigee alt
35,769.4 km
Apogee alt
35,803.4 km
Semi-major
42,164.6 km
B*
0.0000e+0
RAAN
70.5824°
Arg perigee
109.1468°
Mean anomaly
96.9469°
Rev number
9,164

§ Raw data

INTELSAT 902 (IS-902)1 26900U 01039A   26262.91103199 -.00000285  00000+0  00000+0 0  99952 26900   6.3499  70.5824 0004035 109.1468  96.9469  1.00272401 91647

JSON: /api/v1/satellites/26900 · /tle

For live sub-satellite position, see the globe view (requires WebGL).

§ Visibility from observer

Set your observer location to see the next 7 days of passes ≥ 10°. The values pass through the URL so the page stays shareable.

No JS? Fill the form by hand. The geolocation button needs JavaScript.